Location: Barcelona
(41.3829°N, 2.1774°E)
Time: 11:02:39
(UTC+00:00)

ISS - Pass Details

Date: 24 February 2026
Orbit: 416 x 427 km, 51.6° (Epoch: 5 March)

Event Time Altitude Azimuth Distance (km) Brightness Sun altitude
Exits shadow 05:37:08 - 323° (NW) 1,650 -1.1 -11.3°
Reaches altitude 10° 05:37:41 10° 329° (NNW) 1,496 -1.3 -11.2°
Maximum altitude 05:39:52 16° 10° (N) 1,180 -1.4 -10.8°
Drops below altitude 10° 05:42:03 10° 51° (NE) 1,493 -0.2 -10.4°
Sets 05:44:44 0° 74° (ENE) 2,354 1.6 -9.9°
